Date String (YYYY-MM-DD hh:mm:ss) UTC,Instrument flags,Ambient pressure (hPa),Sample flow (lpm),Bypass flow (lpm),Sample temperature (°C),Ambient temperature (°C),ASC tube jacket temperature (°C),LED temperature (°C),Box temperature (°C),Sample RH (%),Span deviation,Mass concentration (μg/m³),Mass concentration (μg/m³),Mass concentration (μg/m³)
DateTimeUTC,F1_M11,P_M11,Q1_M11,Q2_M11,T1_M11,T2_M11,T3_M11,T4_M11,T5_M11,U1_M11,ZSPAN_M11,X0_M11,X2_M11,X1_M11
2022-03-17 18:00:00,,0829.2,5.00,0.00,22.7,22.0,00.0,31.6,24.5,15.9,0000.0,0002.54,0001.16,0000.55
2022-03-17 18:01:00,,0829.2,5.00,0.00,22.7,22.0,00.0,31.6,24.4,16.2,0000.0,0002.67,0001.19,0000.56
2022-03-17 18:02:00,,0829.2,5.00,0.00,22.7,22.0,00.0,31.6,24.4,16.8,0000.0,0002.81,0001.21,0000.57
2022-03-17 18:03:00,,0829.2,5.00,0.00,22.6,22.0,00.0,31.6,24.4,16.0,0000.0,0002.60,0001.19,0000.58
2022-03-17 18:04:00,,0829.2,5.00,0.00,22.6,22.0,00.0,31.6,24.4,16.1,0000.0,0002.46,0001.14,0000.58
2022-03-17 18:05:00,,0829.3,5.01,0.00,22.7,22.4,00.0,31.6,24.5,15.8,0000.0,0002.50,0001.16,0000.59
2022-03-17 18:06:00,,0829.2,4.99,0.00,22.8,23.2,00.0,31.7,24.8,16.1,0000.0,0002.51,0001.18,0000.60
2022-03-17 18:07:00,,0829.2,5.00,0.00,22.9,23.5,00.0,31.7,24.9,15.5,0000.0,0002.57,0001.20,0000.60
2022-03-17 18:08:00,,0829.2,5.01,0.00,23.0,23.3,00.0,31.7,24.9,15.0,0000.0,0002.77,0001.26,0000.61
2022-03-17 18:09:00,,0829.2,5.01,0.00,23.0,23.1,00.0,31.8,24.9,15.1,0000.0,0002.81,0001.27,0000.61
2022-03-17 18:10:00,,0829.2,5.00,0.00,23.0,22.9,00.0,31.8,24.8,15.3,0000.0,0002.74,0001.23,0000.60
2022-03-17 18:11:00,,0829.2,4.99,0.00,23.0,22.8,00.0,31.8,24.8,16.3,0000.0,0002.67,0001.20,0000.60
2022-03-17 18:12:00,,0829.2,5.00,0.00,23.0,22.7,00.0,31.8,24.8,16.3,0000.0,0002.60,0001.18,0000.60
2022-03-17 18:13:00,,0829.2,5.02,0.00,22.9,22.6,00.0,31.8,24.8,15.6,0000.0,0002.40,0001.14,0000.60
2022-03-17 18:14:00,,0829.3,5.00,0.00,22.9,22.5,00.0,31.8,24.7,15.7,0000.0,0002.62,0001.12,0000.59
2022-03-17 18:15:00,,0829.2,5.00,0.00,22.9,22.4,00.0,31.8,24.7,15.8,0000.0,0002.67,0001.13,0000.58
2022-03-17 18:16:00,,0829.2,5.00,0.00,22.9,22.4,00.0,31.8,24.7,16.2,0000.0,0002.66,0001.13,0000.59
2022-03-17 18:17:00,,0829.2,5.00,0.00,22.9,22.3,00.0,31.8,24.6,15.7,0000.0,0002.58,0001.10,0000.58
2022-03-17 18:18:00,,0829.2,5.00,0.00,22.9,22.3,00.0,31.8,24.6,15.9,0000.0,0002.52,0001.07,0000.57
2022-03-17 18:19:00,,0829.2,5.00,0.00,22.9,22.2,00.0,31.8,24.6,15.8,0000.0,0002.29,0001.00,0000.57
2022-03-17 18:20:00,,0829.2,5.00,0.00,22.8,22.2,00.0,31.8,24.6,15.7,0000.0,0002.12,0000.95,0000.57
2022-03-17 18:21:00,,0829.2,5.00,0.00,22.9,22.2,00.0,31.8,24.7,15.9,0000.0,0002.13,0000.96,0000.57
2022-03-17 18:22:00,,0829.1,5.00,0.00,22.9,22.2,00.0,31.8,24.7,15.3,0000.0,0002.25,0001.00,0000.57
2022-03-17 18:23:00,,0829.1,5.00,0.00,22.8,22.2,00.0,31.8,24.6,15.5,0000.0,0002.29,0001.01,0000.58
2022-03-17 18:24:00,,0829.1,5.00,0.00,22.8,22.2,00.0,31.8,24.6,15.7,0000.0,0002.28,0001.05,0000.58
2022-03-17 18:25:00,,0829.2,5.00,0.00,22.8,22.2,00.0,31.8,24.7,16.4,0000.0,0002.02,0001.04,0000.58
2022-03-17 18:26:00,,0829.1,5.01,0.00,22.8,22.2,00.0,31.8,24.6,16.4,0000.0,0001.98,0001.03,0000.58
2022-03-17 18:27:00,,0829.0,5.00,0.00,22.8,22.2,00.0,31.8,24.6,15.9,0000.0,0001.97,0001.03,0000.60
2022-03-17 18:28:00,,0829.1,5.00,0.00,22.8,22.2,00.0,31.8,24.6,16.1,0000.0,0002.11,0001.05,0000.61
2022-03-17 18:29:00,,0829.1,5.00,0.00,22.8,22.2,00.0,31.8,24.6,16.2,0000.0,0002.12,0001.06,0000.61
2022-03-17 18:30:00,,0829.1,5.00,0.00,22.8,22.1,00.0,31.8,24.5,15.2,0000.0,0002.07,0001.05,0000.61
2022-03-17 18:31:00,,0829.1,5.00,0.00,22.8,22.1,00.0,31.8,24.5,15.0,0000.0,0002.16,0001.09,0000.62
2022-03-17 18:32:00,,0829.1,5.00,0.00,22.7,22.1,00.0,31.8,24.5,15.4,0000.0,0002.24,0001.12,0000.62
2022-03-17 18:33:00,,0829.1,5.00,0.00,22.7,22.2,00.0,31.8,24.5,15.2,0000.0,0002.23,0001.10,0000.62
2022-03-17 18:34:00,,0829.2,4.99,0.00,22.8,22.9,00.0,31.8,24.7,15.1,0000.0,0002.18,0001.06,0000.60
2022-03-17 18:35:00,,0829.2,5.00,0.00,23.0,23.4,00.0,31.8,24.9,15.1,0000.0,0002.15,0001.08,0000.61
2022-03-17 18:36:00,,0829.2,5.01,0.00,23.0,23.2,00.0,31.9,24.9,15.1,0000.0,0002.21,0001.10,0000.62
2022-03-17 18:37:00,,0829.1,5.00,0.00,23.0,23.1,00.0,31.9,24.9,14.8,0000.0,0002.37,0001.15,0000.62
2022-03-17 18:38:00,,0829.1,4.99,0.00,23.1,23.0,00.0,31.9,24.9,16.4,0000.0,0002.37,0001.14,0000.60
2022-03-17 18:39:00,,0829.1,5.01,0.00,23.1,22.9,00.0,31.9,24.9,16.9,0000.0,0002.34,0001.13,0000.59
2022-03-17 18:40:00,,0829.0,5.01,0.00,23.0,22.7,00.0,31.9,24.9,15.8,0000.0,0002.32,0001.13,0000.59
2022-03-17 18:41:00,,0829.0,5.01,0.00,23.0,22.6,00.0,31.9,24.8,14.7,0000.0,0002.42,0001.14,0000.58
2022-03-17 18:42:00,,0829.0,5.01,0.00,23.0,22.5,00.0,31.9,24.8,15.2,0000.0,0002.47,0001.13,0000.58
2022-03-17 18:43:00,,0829.0,5.00,0.00,23.0,22.5,00.0,31.9,24.7,15.0,0000.0,0002.50,0001.14,0000.58
2022-03-17 18:44:00,,0829.1,4.99,0.00,22.9,22.4,00.0,31.9,24.7,14.6,0000.0,0002.57,0001.17,0000.58
2022-03-17 18:45:00,,0829.1,5.00,0.00,22.9,22.4,00.0,31.9,24.7,14.5,0000.0,0002.57,0001.18,0000.58
2022-03-17 18:46:00,,0829.0,5.00,0.00,22.9,22.3,00.0,31.9,24.7,15.0,0000.0,0002.95,0001.18,0000.58
2022-03-17 18:47:00,,0829.1,5.00,0.00,22.9,22.3,00.0,31.9,24.7,15.2,0000.0,0003.37,0001.17,0000.58
2022-03-17 18:48:00,,0829.0,5.00,0.00,22.9,22.3,00.0,31.9,24.7,14.8,0000.0,0003.18,0001.11,0000.58
2022-03-17 18:49:00,,0829.0,4.99,0.00,22.9,22.3,00.0,31.9,24.7,15.3,0000.0,0003.23,0001.14,0000.58
2022-03-17 18:50:00,,0829.0,5.00,0.00,22.9,22.3,00.0,31.9,24.7,15.9,0000.0,0003.07,0001.13,0000.59
2022-03-17 18:51:00,,0829.0,4.99,0.00,22.9,22.3,00.0,31.9,24.6,15.8,0000.0,0003.18,0001.16,0000.60
2022-03-17 18:52:00,,0829.0,5.02,0.00,22.9,22.3,00.0,31.9,24.6,15.4,0000.0,0003.28,0001.22,0000.62
2022-03-17 18:53:00,,0829.0,5.00,0.00,22.9,22.3,00.0,31.9,24.6,15.1,0000.0,0003.17,0001.21,0000.63
2022-03-17 18:54:00,,0828.9,5.00,0.00,22.9,22.2,00.0,31.9,24.6,15.2,0000.0,0003.12,0001.21,0000.64
2022-03-17 18:55:00,,0829.0,5.00,0.00,22.9,22.2,00.0,31.9,24.6,15.2,0000.0,0003.03,0001.19,0000.65
2022-03-17 18:56:00,,0829.0,5.00,0.00,22.8,22.2,00.0,31.8,24.6,15.7,0000.0,0003.03,0001.21,0000.66
2022-03-17 18:57:00,,0829.0,5.00,0.00,22.8,22.2,00.0,31.8,24.6,15.5,0000.0,0002.69,0001.18,0000.67
2022-03-17 18:58:00,,0828.9,5.00,0.00,22.8,22.2,00.0,31.8,24.6,15.6,0000.0,0002.28,0001.20,0000.71
2022-03-17 18:59:00,,0828.9,5.00,0.00,22.8,22.2,00.0,31.8,24.6,15.3,0000.0,0002.32,0001.25,0000.75
